sat.trackr.live / text

‹ back to catalog

ONEWEB-0662

NORAD 55822 · 2023-029AC

PAYLOAD ACTIVE UNKNOWN

§ Identity

Operator
Country
UK
Launch date
2023-03-09
Launch site
AFETR
Launch vehicle
Mass (kg)
RCS (m²)

Purposes: comms

External: N2YO · Heavens-Above · Gunter

§ Orbital elements

Epoch: 2026-09-20T00:56:15.340416Z

Period
109.54 min
Inclination
87.8890°
Eccentricity
0.0002408
Mean motion
13.14565191 rev/d
Perigee alt
1,203.7 km
Apogee alt
1,207.4 km
Semi-major
7,583.7 km
B*
-1.9286e-4
RAAN
270.8219°
Arg perigee
85.7982°
Mean anomaly
274.3423°
Rev number
17,189

§ Raw data

ONEWEB-06621 55822U 23029AC  26263.03906644 -.00000059  00000+0 -19286-3 0  99932 55822  87.8890 270.8219 0002408  85.7982 274.3423 13.14565191171893

JSON: /api/v1/satellites/55822 · /tle

For live sub-satellite position, see the globe view (requires WebGL).

§ Visibility from observer

Set your observer location to see the next 7 days of passes ≥ 10°. The values pass through the URL so the page stays shareable.

No JS? Fill the form by hand. The geolocation button needs JavaScript.